Location: *
(42.0175°N, 9.4056°E)
Time: 15:00:09
(UTC+00:00)

Cosmos 158 Rocket - Pass Details

Date: 25 August 2019
Orbit: 698 x 794 km, 74.0° (Epoch: 18 September)

Event Time Altitude Azimuth Distance (km) Brightness Sun altitude
Rises 19:51:46 0° 340° (NNW) 3,264 8.2 -18.3°
Reaches altitude 10° 19:54:08 10° 340° (NNW) 2,344 7.3 -18.7°
Maximum altitude 19:59:30 90° 26° (NNE) 796 4.0 -19.5°
Enters shadow 20:02:04 32° 162° (SSE) 1,321 4.8 -19.9°
